FW4373 Weather Reports


time (UTC)temp
C
wind
direction
speed
KPH
gust
KPH
rain 1hr
cm
rain 24hr
cm
rain mn
cm
humidity
%
barometer
mb
20260510161527 12 102 4.8 20.9 0.00 0.00 0.00 64 1015.4
20260510160038 12 92 3.2 22.5 0.00 0.00 0.00 64 1015.6
20260510154528 12 0 3.2 17.7 0.00 0.00 0.00 65 1015.7
20260510153026 12 0 1.6 25.7 0.00 0.00 0.00 66 1015.8
20260510151525 11 0 6.4 17.7 0.00 0.00 0.00 67 1015.9
20260510150027 11 88 1.6 16.1 0.00 0.00 0.00 67 1016.1
20260510144527 11 0 4.8 22.5 0.00 0.00 0.00 68 1016.3
20260510143027 11 0 1.6 22.5 0.00 0.00 0.00 68 1016.4
20260510141534 11 0 3.2 20.9 0.00 0.00 0.00 68 1016.5
20260510140028 12 0 0.0 22.5 0.00 0.00 0.00 69 1016.6
20260510134528 12 61 1.6 22.5 0.00 0.00 0.00 69 1016.6
20260510133030 11 66 1.6 24.1 0.00 0.00 0.00 70 1016.7
20260510131526 12 0 0.0 20.9 0.00 0.00 0.00 70 1016.7
20260510130028 12 109 0.0 19.3 0.00 0.00 0.00 71 1016.9
20260510124527 12 77 6.4 25.7 0.00 0.00 0.00 70 1017.0
20260510123028 12 80 1.6 22.5 0.00 0.00 0.00 70 1017.1
20260510121528 12 63 3.2 25.7 0.00 0.00 0.00 69 1017.1
20260510120029 12 90 9.7 30.6 0.00 0.00 0.00 70 1017.1
20260510114530 12 94 6.4 24.1 0.00 0.00 0.00 68 1017.3
20260510113028 12 75 3.2 24.1 0.00 0.00 0.00 67 1017.3
20260510111526 13 116 8.0 25.7 0.00 0.00 0.00 66 1017.6
20260510110032 12 0 4.8 30.6 0.00 0.00 0.00 68 1017.5
20260510104528 12 0 4.8 22.5 0.00 0.00 0.00 70 1017.6
20260510103028 13 88 1.6 17.7 0.00 0.00 0.00 67 1017.7
20260510101527 12 81 8.0 29.0 0.00 0.00 0.00 66 1017.7
20260510100034 12 0 4.8 25.7 0.00 0.00 0.00 68 1017.7
20260510094530 11 0 6.4 32.2 0.00 0.00 0.00 70 1017.7
20260510093036 11 0 4.8 29.0 0.00 0.00 0.00 71 1017.9
20260510091529 11 110 6.4 32.2 0.00 0.00 0.00 71 1018.0
20260510090031 11 76 3.2 24.1 0.00 0.00 0.00 72 1018.1
20260510084532 11 77 1.6 19.3 0.00 0.00 0.00 74 1018.2
20260510083029 11 0 1.6 19.3 0.00 0.00 0.00 76 1018.2
20260510081527 10 77 3.2 19.3 0.00 0.00 0.00 77 1018.2
20260510080028 10 113 1.6 22.5 0.00 0.00 0.00 79 1018.3
20260510074527 10 0 0.0 11.3 0.00 0.00 0.00 79 1018.3
20260510073028 9 47 1.6 11.3 0.00 0.00 0.00 80 1018.3
20260510071537 9 0 4.8 25.7 0.00 0.00 0.00 81 1018.3
20260510070026 9 72 1.6 16.1 0.00 0.00 0.00 82 1018.3
20260510064528 9 90 6.4 25.7 0.00 0.00 0.00 82 1018.1
20260510063029 9 97 1.6 16.1 0.00 0.00 0.00 83 1018.1
20260510061541 8 90 1.6 14.5 0.00 0.00 0.00 84 1018.2
20260510060029 8 92 3.2 16.1 0.00 0.00 0.00 84 1018.0
20260510054528 8 67 1.6 14.5 0.00 0.00 0.00 84 1018.0
20260510053025 8 91 3.2 14.5 0.00 0.00 0.00 84 1018.1
20260510051527 8 92 1.6 22.5 0.00 0.00 0.00 84 1018.2
20260510050027 8 0 1.6 11.3 0.00 0.00 0.00 84 1018.1
20260510044528 8 0 1.6 16.1 0.00 0.00 0.00 84 1018.0
20260510043028 8 70 3.2 16.1 0.00 0.00 0.00 84 1018.0
20260510041527 8 0 0.0 9.7 0.00 0.00 0.00 83 1018.2
20260510040030 8 53 3.2 12.9 0.00 0.00 0.00 83 1018.1
20260510034529 8 0 1.6 14.5 0.00 0.00 0.00 82 1018.3
20260510033028 8 75 1.6 9.7 0.00 0.00 0.00 83 1018.5
20260510031538 8 0 0.0 8.0 0.00 0.00 0.00 83 1018.5
20260510030025 9 0 0.0 6.4 0.00 0.00 0.00 83 1018.4
20260510024655 9 0 0.0 3.2 0.00 0.00 0.00 83 1018.5
20260510023027 9 0 0.0 8.0 0.00 0.00 0.00 83 1018.4
20260510021529 9 0 0.0 0.0 0.00 0.00 0.00 83 1018.4
20260510020028 9 0 0.0 12.9 0.00 0.00 0.00 82 1018.4
20260510014526 10 0 3.2 12.9 0.00 0.00 0.00 81 1018.4
20260510013029 10 114 3.2 12.9 0.00 0.00 0.00 79 1018.5
20260510011536 10 0 0.0 9.7 0.00 0.00 0.00 75 1018.6
20260510010025 10 0 1.6 14.5 0.00 0.00 0.00 71 1018.4
20260510004527 10 0 1.6 16.1 0.00 0.00 0.00 65 1018.4
20260510003054 11 84 1.6 12.9 0.00 0.00 0.00 63 1018.5
20260510001531 11 0 1.6 16.1 0.00 0.00 0.00 62 1018.5
20260510000028 11 0 1.6 9.7 0.00 0.00 0.00 62 1018.3
20260509234529 11 0 1.6 9.7 0.00 0.00 0.00 61 1018.4
20260509233029 11 0 0.0 8.0 0.00 0.00 0.00 61 1018.2
20260509231532 11 0 0.0 4.8 0.00 0.00 0.00 61 1018.2
20260509230031 12 0 0.0 0.0 0.00 0.00 0.00 60 1018.2
20260509224529 12 0 0.0 0.0 0.00 0.00 0.00 60 1018.2
20260509223030 12 0 0.0 0.0 0.00 0.00 0.00 58 1018.0
20260509221526 12 0 0.0 0.0 0.00 0.00 0.00 57 1018.1
20260509220026 12 0 0.0 4.8 0.00 0.00 0.00 56 1018.1
20260509214525 12 0 0.0 6.4 0.00 0.00 0.00 55 1018.0
20260509213026 13 0 0.0 0.0 0.00 0.00 0.00 55 1018.2
20260509211528 13 0 0.0 1.6 0.00 0.00 0.00 55 1018.0
20260509210028 13 0 0.0 6.4 0.00 0.00 0.00 52 1017.7
20260509204528 14 0 0.0 12.9 0.00 0.00 0.00 51 1017.6
20260509203034 15 0 0.0 12.9 0.00 0.00 0.00 50 1017.4
20260509201530 15 0 1.6 11.3 0.00 0.00 0.00 49 1017.4
20260509200028 15 107 1.6 11.3 0.00 0.00 0.00 48 1017.3
20260509194533 15 114 1.6 16.1 0.00 0.00 0.00 48 1017.3
20260509193026 16 107 3.2 11.3 0.00 0.00 0.00 47 1017.2
20260509191528 16 113 1.6 11.3 0.00 0.00 0.00 46 1017.0
20260509190029 17 0 0.0 12.9 0.00 0.00 0.00 46 1017.0
20260509184528 17 0 1.6 14.5 0.00 0.00 0.00 45 1016.8
20260509183028 17 119 1.6 14.5 0.00 0.00 0.00 45 1016.7
20260509181541 18 112 4.8 12.9 0.00 0.00 0.00 43 1016.5
20260509180028 18 79 0.0 14.5 0.00 0.00 0.00 42 1016.5
20260509174526 19 0 3.2 16.1 0.00 0.00 0.00 41 1016.4
20260509173028 20 92 6.4 16.1 0.00 0.00 0.00 40 1016.2
20260509171528 20 0 3.2 14.5 0.00 0.00 0.00 40 1016.1
20260509170026 20 0 3.2 19.3 0.00 0.00 0.00 40 1016.4
20260509164525 20 0 1.6 16.1 0.00 0.00 0.00 40 1016.4